Location: Oare
(51.3167°N, 0.8833°E)
Time: 21:21:31
(UTC+00:00)

Daily predictions for brighter satellites

Satellite Brightness Start Highest point End
(mag) Time Altitude Azimuth Time Altitude Azimuth Time Altitude Azimuth
Exosat Rocket 4.1 18:36:27 10° S 18:41:24 45° ESE 18:47:40 10° NE
Meteor 1-11 Rocket 4.2 18:39:00 10° SSW 18:44:54 75° WNW 18:50:43 10° N
USA 186 2.8 18:42:39 10° SE 18:45:19 26° ENE 18:48:01 10° N
Meteor 1-21 4.3 18:41:54 10° N 18:47:28 60° ENE 18:53:02 10° SSE
Okean 3 3.4 18:43:24 10° N 18:47:37 67° ENE 18:51:49 10° SSE
COSMO-SKYMED 1 3.7 18:45:14 10° N 18:49:27 50° WNW 18:53:39 10° SW
USA 229 DEB 4.2 18:44:43 10° WSW 18:51:01 60° NW 18:57:59 10° NE
USA 229 4.2 18:44:48 10° WSW 18:51:07 61° NW 18:58:04 10° NE
Cosmos 1707 2.6 18:48:55 10° N 18:52:45 83° E 18:56:32 10° SSE
Cosmos 2322 3.8 18:47:52 10° NNW 18:53:35 88° WSW 18:59:15 10° SSE
Okean 1-7 3.0 18:49:48 10° N 18:54:13 77° E 18:58:33 10° SSE
CZ-4B R/B 3.4 18:49:05 10° SSE 18:54:46 87° WSW 19:00:27 10° NNW
Cosmos 1954 Rocket 4.2 18:49:32 10° NNW 18:54:47 82° WSW 19:00:03 10° SSE
Cosmos 1727 Rocket 4.0 18:49:53 10° S 18:56:12 84° E 19:02:31 10° N
Cosmos 1674 2.5 18:53:25 10° N 18:57:09 75° E 19:00:52 10° SSE
Lacrosse 5 rocket 3.4 18:57:22 10° SE 18:58:09 10° ESE 18:58:56 10° ESE
Cosmos 1980 4.3 18:53:24 10° NNW 18:58:48 42° NE 19:04:10 10° ESE
Cosmos 1805 4.4 18:56:07 10° SE 18:59:04 22° E 19:02:03 10° NE
Cosmos 2219 Rocket 2.7 18:54:32 10° NW 19:00:12 66° WSW 19:05:49 10° SSE
Cosmos 2333 Rocket 3.4 18:56:36 10° NW 19:02:06 45° WSW 19:07:32 10° S
Cosmos 1933 Rocket 3.5 18:59:02 10° S 19:03:16 60° E 19:07:34 10° NNE
Cosmos 1975 3.0 18:59:35 10° SSE 19:03:22 46° E 19:07:12 10° NNE
SJ-6B 2.8 19:00:18 10° SSE 19:04:08 58° ENE 19:07:55 10° N
CZ-4C R/B 4.2 19:00:45 10° N 19:04:24 52° WNW 19:08:14 10° SSW
Cosmos 2233 Rocket 4.5 19:01:08 10° N 19:06:53 40° ENE 19:12:38 10° SE
Meteor 2-9 Rocket 4.2 19:01:55 10° S 19:07:26 89° WNW 19:12:50 10° NNE
Cosmos 1726 3.1 19:05:36 10° SE 19:08:28 24° E 19:11:23 10° NE
CSL-04 Debris 4.2 19:04:24 10° SSE 19:09:44 62° ENE 19:15:07 10° N
BREEZE-M DEB (TANK) 4.2 19:06:57 10° W 19:10:47 21° SW 19:12:57 10° S
Cosmos 2061 Rocket 4.2 19:04:49 10° N 19:11:09 54° ENE 19:17:25 10° SSE
USA 267 4.4 19:05:25 10° SSE 19:11:31 40° SW 19:17:39 10° WNW
Cosmos 1869 Rocket 3.9 19:08:55 10° SSE 19:12:56 40° E 19:17:01 10° NNE
COSMOS 2428 2.8 19:07:34 10° NNW 19:13:20 82° WSW 19:19:04 10° SSE
Cosmos 1900 4.4 19:08:35 10° SSW 19:13:23 53° ESE 19:18:10 10° NE
SL-14 R/B 3.7 19:12:01 10° N 19:15:40 39° ENE 19:19:17 10° SE
Cosmos 1459 Rocket 4.0 19:12:21 10° NNW 19:18:26 83° W 19:24:30 10° S
USA 281 3.4 19:13:58 10° NNE 19:20:33 78° WNW 19:27:06 10° SW
NOSS 3-2 (A) 4.2 19:13:32 10° NW 19:20:51 80° SW 19:29:26 10° SE
Cosmos 2297 Rocket 3.1 19:16:45 10° SSE 19:21:11 24° ESE 19:25:38 10° NE
ATLAS 3B R/B 4.3 19:15:13 10° WNW 19:21:34 32° N 19:28:13 10° NE
Cosmos 1867 4.2 19:19:43 10° S 19:24:28 32° ESE 19:29:15 10° NE
IGS 5A 4.0 19:23:11 10° S 19:27:15 60° W 19:31:22 10° NNW
Cosmos 1725 Rocket 3.9 19:22:05 10° N 19:28:18 78° ENE 19:34:30 10° SSE
MINOTAUR 4 R/B 4.1 19:25:47 10° N 19:29:13 74° WNW 19:32:37 10° SSW
Resurs 01 Rocket 2.2 19:25:55 14° SE 19:29:17 39° ENE 19:33:25 10° N
CZ-4C R/B 3.7 19:24:49 10° NW 19:30:45 37° NNE 19:36:50 14° E
Cosmos 1371 Rocket 4.4 19:25:41 10° SW 19:30:56 67° WNW 19:36:11 10° NNE
CENTAUR R/B 3.5 19:23:16 10° NW 19:31:19 71° SW 19:40:17 10° SSE
NOSS 3-2 (C) 4.0 19:24:09 10° NW 19:31:26 80° NE 19:38:47 15° SE
Cosmos 1626 3.8 19:28:45 10° NNW 19:32:00 34° W 19:35:15 10° SSW
Cosmos 1733 3.1 19:29:19 10° S 19:33:01 60° E 19:36:46 10° NNE
Landsat 7 3.8 19:29:24 10° SSE 19:34:07 86° WSW 19:38:52 10° NNW
Cosmos 1271 Rocket 4.4 19:36:59 16° ENE 19:36:59 16° ENE 19:38:35 10° NE
Cosmos 2227 Rocket 3.3 19:35:02 17° SE 19:37:05 20° E 19:41:07 10° NE
CZ-4 R/B 3.0 19:34:44 10° SSW 19:38:16 35° W 19:41:52 10° NNW
Cosmos 2056 Rocket 4.0 19:34:18 10° SW 19:39:21 61° WNW 19:44:26 10° NNE
Iridium 4 Rocket 2.9 19:37:54 10° N 19:42:08 85° E 19:46:18 10° S
Cosmos 192 4.3 19:38:03 10° S 19:42:57 64° ESE 19:47:51 10° NNE
Cosmos 2098 Rocket 3.8 19:37:48 10° S 19:43:15 86° ESE 19:49:53 10° N
Terra 3.6 19:42:45 14° ENE 19:43:51 15° NE 19:46:32 10° NNE
Cosmos 1802 Rocket 4.4 19:38:33 10° NNW 19:44:46 69° W 19:51:01 10° S
Geosat 4.0 19:40:50 16° SE 19:44:52 79° NE 19:49:55 10° NNW
USA 238 DEB 3.9 19:37:52 10° NW 19:45:06 79° NE 19:50:50 20° SE
USA 238 3.9 19:37:58 10° NW 19:45:12 78° NE 19:50:55 20° SE
Resurs 1-3 3.8 19:42:14 10° S 19:46:36 72° WSW 19:51:00 10° NNW
SL-16 R/B 3.1 19:41:34 10° NNW 19:46:46 34° NE 19:49:39 22° E
Cosmos 1674 Rocket 4.3 19:47:30 10° N 19:51:29 34° ENE 19:52:41 29° ESE
Cosmos 1850 Rocket 4.2 19:47:01 10° NNW 19:52:21 77° WSW 19:57:17 12° SSE
Meteor 2-10 3.8 19:49:22 10° S 19:54:23 83° E 19:59:31 10° NNE
Cosmos 1733 Rocket 3.4 19:53:01 23° SSE 19:55:09 40° E 19:59:12 10° NNE
Okean-O 2.7 19:52:25 10° S 19:56:51 78° WSW 20:01:18 10° NNW
Okean 2 3.7 19:53:47 10° NNW 19:57:49 65° W 20:01:51 10° S
Cosmos 2016 Rocket 4.4 19:52:02 10° NNW 19:58:04 65° W 20:04:06 10° S
NOSS 0 Rocket 4.4 19:53:10 10° NW 19:59:17 62° WSW 20:05:06 11° SSE
CARTOSAT-1 3.8 19:58:45 31° SE 20:00:24 49° ENE 20:04:34 10° N
SPOT 1/Viking Rocket 3.5 19:55:57 13° SSE 20:00:35 86° ENE 20:05:50 10° NNW
Cosmos 1110 Rocket 4.0 19:56:45 10° S 20:01:50 58° ESE 20:06:56 10° NNE
Cosmos 1378 Rocket 3.9 19:58:32 10° N 20:02:47 45° ENE 20:04:03 35° ESE
SPOT 5 3.8 20:02:23 27° E 20:03:23 29° ENE 20:07:32 10° N
Cosmos 2123 Rocket 4.2 19:57:34 10° SSW 20:03:52 74° WNW 20:10:14 10° N
Cosmos 2221 Rocket 3.7 19:59:31 10° N 20:03:53 53° ENE 20:05:26 35° SE
Okean O Rocket 3.7 20:01:36 10° SSW 20:05:21 27° W 20:09:07 10° NW
Helios 1B 4.5 20:01:28 10° NNE 20:05:50 89° ESE 20:10:10 10° SSW
BREEZE-M DEB (TANK) 2.7 20:02:01 10° W 20:07:44 62° SSW 20:08:22 48° SE
ISS -3.8 20:04:44 10° W 20:08:06 83° N 20:08:42 57° E
GEOS 3 Rocket 4.2 20:03:03 10° NE 20:08:22 61° NW 20:13:40 10° WSW
Cosmos 1447 Rocket 4.4 20:10:38 10° S 20:16:47 68° E 20:22:56 10° NNE
USA 215 3.7 20:10:31 10° ENE 20:16:51 59° N 20:23:15 10° W
Cosmos 1452 Rocket 3.5 20:11:36 10° SSW 20:16:53 85° WNW 20:22:13 10° NNE
USA 186 4.3 20:15:02 10° SW 20:17:25 20° W 20:19:51 10° NW
ADEOS Rocket 3.9 20:15:26 28° E 20:17:50 37° ENE 20:24:13 10° N
Cosmos 1766 3.0 20:17:38 48° SSE 20:18:30 69° E 20:22:18 10° NNE
Cosmos 1331 Rocket 3.8 20:13:41 10° SSW 20:18:48 73° ESE 20:23:58 10° NNE
Cosmos 2237 Rocket 2.5 20:16:08 10° NW 20:21:44 64° WSW 20:25:11 24° S
H-2A R/B 2.8 20:23:55 48° E 20:24:29 51° ENE 20:28:49 10° N
Meteor 1-15 Rocket 4.5 20:24:43 35° SE 20:26:39 49° E 20:32:18 10° NNE
MetOp-B 4.0 20:29:53 40° SSE 20:31:53 76° ENE 20:37:15 10° NNW
ATLAS CENTAUR R/B 4.1 20:17:08 10° SW 20:32:58 81° SE 20:40:08 10° ENE
Cosmos 968 Rocket 3.5 20:30:25 10° NNW 20:35:36 77° WSW 20:37:26 41° S
Lacrosse 5 rocket 2.5 20:32:08 10° SW 20:34:34 30° SSW 20:34:34 30° SSW
SJ 16-02 2.4 20:32:31 10° N 20:36:14 31° NE 20:36:14 31° NE
Meteor 1-12 Rocket 4.2 20:38:17 37° SSE 20:40:29 64° E 20:46:09 10° NNE
Cosmos 1975 Rocket 4.5 20:37:02 10° N 20:39:54 26° NE 20:39:54 26° NE
FALCON 9 R/B 4.2 20:25:29 10° WSW 20:42:09 31° SSW 20:45:16 25° SSE
Cosmos 1726 4.1 20:39:58 10° SW 20:43:01 27° WNW 20:46:05 10° N
ERS-1 Rocket 3.1 20:44:49 51° E 20:45:07 52° ENE 20:50:00 10° N
Cosmos 1513 Rocket 4.3 20:39:26 10° N 20:45:33 81° E 20:47:45 42° SSE
Meteor 1-24 Rocket 3.8 20:39:48 10° N 20:45:43 70° ENE 20:47:15 50° SE
Meteor 2-15 4.3 20:43:42 10° N 20:49:54 81° E 20:51:48 47° SSE
BREEZE-M DEB (TANK) 3.0 20:43:38 10° WNW 20:50:03 70° SSW 20:50:42 60° SSE
Landsat 5 4.2 20:46:40 10° N 20:50:23 47° WNW 20:53:40 13° SW
Ariane Rocket 2.9 20:49:52 58° SSE 20:50:53 89° ENE 20:56:00 10° NNW
Spot 2 4.3 20:51:12 67° ESE 20:51:39 71° ENE 20:56:31 10° NNW
Meteor 2-8 Rocket 4.3 20:45:31 10° N 20:51:41 76° ENE 20:53:21 50° SSE
Cosmos 482 Debris 4.4 20:48:14 10° WNW 20:52:59 71° W 20:52:59 71° W
Cosmos 1943 4.1 20:48:43 10° NNW 20:53:49 34° NE 20:54:31 32° ENE
Meteor 2-15 Rocket 4.4 20:49:38 10° N 20:55:49 71° ENE 20:57:02 56° SE
Spot 2 Rocket 3.4 21:01:35 69° E 21:01:44 70° ENE 21:06:50 10° N
Cosmos 1302 Rocket 3.9 21:02:14 60° S 21:03:12 83° ESE 21:08:32 10° NNE
Cosmos 2297 Rocket 2.4 20:59:06 10° SW 21:04:43 69° WNW 21:10:24 10° NNE
Resurs 01 Rocket 3.4 21:03:27 17° SW 21:05:53 28° W 21:09:42 10° NW
Cosmos 2034 Rocket 3.8 21:00:53 10° N 21:07:05 70° ENE 21:07:51 63° ESE
Cosmos 1867 4.0 21:02:25 10° WSW 21:07:48 61° NW 21:13:14 10° NE
Cosmos 1271 Rocket 3.8 21:11:48 42° WNW 21:11:48 42° WNW 21:15:04 10° N
Cosmos 2219 3.3 21:13:55 59° ENE 21:13:55 59° ENE 21:18:37 10° NNE
SPOT 3 Rocket 3.5 21:12:40 75° SSW 21:13:04 82° WSW 21:18:21 10° NNW
Meteor 2-5 Rocket 3.9 21:07:20 10° NNW 21:13:08 71° W 21:14:30 52° SSW
ATLAS 3B R/B 3.9 21:07:23 10° NW 21:14:17 39° NNE 21:17:41 27° ENE
Cosmos 1470 4.1 21:15:43 37° N 21:15:43 37° N 21:18:13 10° N
deb Chang Zheng 4 4.5 21:16:08 39° NNW 21:16:08 39° NNW 21:18:39 10° NNW
Meteor 2-19 Rocket 4.5 21:15:20 59° E 21:15:20 59° E 21:21:02 10° NNE
CZ-4C R/B 2.8 21:13:15 10° NW 21:20:12 82° NE 21:21:59 58° ESE
Cosmos 2227 Rocket 2.2 21:14:48 10° SSW 21:20:29 81° WNW 21:26:11 10° NNE
Terra 2.0 21:21:29 64° N 21:21:29 64° N 21:25:32 10° NNW
Cosmos 1503 Rocket 4.3 21:22:17 10° NNW 21:26:52 58° NNE 21:26:52 58° NNE
SL-16 R/B 2.5 21:25:37 10° NW 21:31:12 56° WSW 21:31:32 56° SW
Cosmos 1486 Rocket 4.3 21:33:25 10° NNW 21:38:14 66° WNW 21:38:14 66° WNW
SPOT 5 3.7 21:41:34 43° W 21:41:34 43° W 21:45:53 10° NNW
ISS -0.4 21:41:33 10° W 21:41:38 11° W 21:41:38 11° W
H-2A R/B 4.2 21:50:20 10° NNE 21:51:45 20° NNE 21:51:45 20° NNE
Cosmos 2279 Rocket 4.4 21:51:11 10° N 21:56:22 52° NE 21:56:22 52° NE
USA 215 3.6 21:57:51 47° NE 21:59:26 58° N 22:05:50 10° WNW
ADEOS Rocket 3.5 22:02:22 53° WSW 22:03:04 55° W 22:09:58 10° NNW
Cosmos 2263 Rocket 3.8 22:13:19 25° NE 22:13:19 25° NE 22:15:31 10° NNE
SJ 16-02 3.4 22:10:58 10° NW 22:13:07 24° WNW 22:13:07 24° WNW
ATLAS 2AS CENTAUR R/B 4.4 22:29:01 22° ENE 22:29:01 22° ENE 22:31:31 10° NE
Cosmos 1943 4.3 22:32:39 10° NW 22:36:19 39° WNW 22:36:19 39° WNW
NOSS 3-4 (A) 4.1 22:42:48 49° NW 22:42:52 49° NNW 22:49:05 10° NE
NOSS 3-4 (C) 4.1 22:43:06 49° NNW 22:43:06 49° NNW 22:49:12 10° NE
ATLAS CENTAUR R/B 3.8 22:37:21 10° W 22:48:26 56° NNW 22:49:44 49° NNE
Terra 4.4 23:00:14 14° WNW 23:00:14 14° WNW 23:01:42 10° NW
Cosmos 2082 Rocket 4.4 22:57:37 10° N 23:01:11 17° NNE 23:02:28 16° NE
NOSS 3-1 (A) 4.5 22:56:25 10° NW 23:03:04 50° NNE 23:03:39 49° NE
Cosmos 2227 Rocket 4.4 23:01:04 10° W 23:05:27 22° NW 23:09:50 10° NNE
ATLAS 3B R/B 3.1 22:58:24 10° NW 23:04:56 69° NNW 23:04:56 69° NNW
CZ-4C R/B 4.1 23:02:04 10° WNW 23:07:09 32° W 23:07:09 32° W
Cosmos 1833 Rocket 4.3 23:09:05 10° NNW 23:12:54 29° NNE 23:12:54 29° NNE
Cosmos 2344 4.0 23:10:18 10° NW 23:18:48 82° SW 23:18:50 82° SW
USA 215 4.3 23:45:11 37° WNW 23:45:11 37° WNW 23:48:52 10° WNW
NOSS 3-1 (C) 4.4 23:43:08 10° NW 23:48:11 52° NW 23:48:11 52° NW
Cosmos 2263 Rocket 4.0 23:54:56 26° NNW 23:54:56 26° NNW 23:59:09 10° NNE
